| time (UTC) | temp F | wind direction | speed knots | gust knots | rain 1hr in | rain 24hr in | rain mn in | humidity % | barometer mb |
| 20260505173756 | 59 | 262 | 8.7 | 18.2 | 0.02 | 0.02 | 0.02 | 77 | 1008.4 |
| 20260505173257 | 61 | 252 | 6.1 | 17.4 | 0.00 | 0.00 | 0.00 | 71 | 1008.3 |
| 20260505172536 | 63 | 291 | 0.0 | 3.5 | 0.00 | 0.00 | 0.00 | 67 | 1007.6 |
| 20260505171751 | 63 | 324 | 0.0 | 5.2 | 0.00 | 0.00 | 0.00 | 67 | 1007.1 |
| 20260505171251 | 63 | 324 | 0.9 | 6.1 | 0.00 | 0.00 | 0.00 | 67 | 1007.0 |
| 20260505170749 | 64 | 358 | 3.5 | 6.1 | 0.00 | 0.00 | 0.00 | 67 | 1007.0 |
| 20260505170249 | 64 | 12 | 0.9 | 4.3 | 0.00 | 0.00 | 0.00 | 67 | 1007.0 |
| 20260505165747 | 64 | 31 | 0.0 | 5.2 | 0.00 | 0.00 | 0.00 | 67 | 1007.0 |
| 20260505165515 | 64 | 32 | 1.7 | 5.2 | 0.00 | 0.00 | 0.00 | 66 | 1007.0 |
| 20260505164745 | 64 | 17 | 1.7 | 5.2 | 0.00 | 0.00 | 0.00 | 66 | 1007.0 |
| 20260505164241 | 64 | 44 | 1.7 | 7.0 | 0.00 | 0.00 | 0.00 | 67 | 1007.1 |
| 20260505163744 | 64 | 20 | 2.6 | 7.0 | 0.00 | 0.00 | 0.00 | 67 | 1007.1 |
| 20260505162242 | 65 | 29 | 4.3 | 9.6 | 0.00 | 0.00 | 0.00 | 66 | 1007.3 |
| 20260505161733 | 65 | 28 | 4.3 | 11.3 | 0.00 | 0.00 | 0.00 | 66 | 1007.3 |
| 20260505161235 | 65 | 24 | 5.2 | 12.2 | 0.00 | 0.00 | 0.00 | 66 | 1007.4 |
| 20260505161017 | 65 | 43 | 5.2 | 12.2 | 0.00 | 0.00 | 0.00 | 67 | 1007.4 |
| 20260505160516 | 66 | 39 | 5.2 | 10.4 | 0.00 | 0.00 | 0.00 | 66 | 1007.4 |
| 20260505153227 | 66 | 14 | 1.7 | 7.0 | 0.00 | 0.00 | 0.00 | 67 | 1007.6 |
| 20260505152725 | 66 | 19 | 2.6 | 7.0 | 0.00 | 0.00 | 0.00 | 67 | 1007.6 |
| 20260505152223 | 66 | 353 | 2.6 | 8.7 | 0.00 | 0.00 | 0.00 | 68 | 1007.7 |
| 20260505152014 | 65 | 45 | 2.6 | 8.7 | 0.00 | 0.00 | 0.00 | 68 | 1007.7 |
| 20260505151217 | 65 | 326 | 2.6 | 8.7 | 0.00 | 0.00 | 0.00 | 68 | 1007.8 |
| 20260505150718 | 65 | 30 | 2.6 | 12.2 | 0.00 | 0.00 | 0.00 | 67 | 1007.8 |
| 20260505150459 | 66 | 28 | 3.5 | 12.2 | 0.00 | 0.00 | 0.00 | 66 | 1007.8 |
| 20260505140200 | 67 | 336 | 1.7 | 10.4 | 0.00 | 0.00 | 0.00 | 62 | 1008.0 |
| 20260505130153 | 68 | 317 | 2.6 | 10.4 | 0.00 | 0.00 | 0.00 | 58 | 1008.4 |
| 20260505124640 | 69 | 7 | 3.5 | 7.8 | 0.00 | 0.00 | 0.00 | 58 | 1008.4 |
| 20260505124134 | 71 | 334 | 1.7 | 9.6 | 0.00 | 0.00 | 0.00 | 58 | 1008.4 |
| 20260505123633 | 70 | 325 | 2.6 | 10.4 | 0.00 | 0.00 | 0.00 | 58 | 1008.5 |
| 20260505123132 | 68 | 319 | 3.5 | 10.4 | 0.00 | 0.00 | 0.00 | 58 | 1008.5 |
| 20260505122632 | 68 | 322 | 4.3 | 9.6 | 0.00 | 0.00 | 0.00 | 58 | 1008.5 |
| 20260505122130 | 68 | 321 | 1.7 | 12.2 | 0.00 | 0.00 | 0.00 | 59 | 1008.5 |
| 20260505121628 | 68 | 337 | 3.5 | 12.2 | 0.00 | 0.00 | 0.00 | 59 | 1008.5 |
| 20260505120626 | 69 | 315 | 3.5 | 7.8 | 0.00 | 0.00 | 0.00 | 59 | 1008.6 |
| 20260505120119 | 69 | 330 | 1.7 | 11.3 | 0.00 | 0.00 | 0.00 | 59 | 1008.6 |
| 20260505115619 | 70 | 328 | 2.6 | 11.3 | 0.00 | 0.00 | 0.00 | 58 | 1008.7 |
| 20260505115116 | 71 | 317 | 5.2 | 12.2 | 0.00 | 0.00 | 0.00 | 57 | 1008.6 |
| 20260505114850 | 72 | 323 | 6.1 | 12.2 | 0.00 | 0.00 | 0.00 | 57 | 1008.7 |
| 20260505114113 | 71 | 294 | 6.1 | 11.3 | 0.00 | 0.00 | 0.00 | 56 | 1008.8 |
| 20260505113612 | 71 | 322 | 2.6 | 7.0 | 0.00 | 0.00 | 0.00 | 55 | 1008.8 |
| 20260505113111 | 71 | 59 | 3.5 | 6.1 | 0.00 | 0.00 | 0.00 | 52 | 1008.9 |
| 20260505112609 | 70 | 55 | 0.9 | 7.0 | 0.00 | 0.00 | 0.00 | 52 | 1008.8 |
| 20260505112117 | 69 | 54 | 3.5 | 7.0 | 0.00 | 0.00 | 0.00 | 54 | 1008.9 |
| 20260505111836 | 69 | 1 | 0.9 | 4.3 | 0.00 | 0.00 | 0.00 | 56 | 1008.9 |
| 20260505111102 | 68 | 39 | 0.9 | 6.1 | 0.00 | 0.00 | 0.00 | 58 | 1008.9 |
| 20260505110602 | 68 | 29 | 2.6 | 8.7 | 0.00 | 0.00 | 0.00 | 58 | 1009.0 |
| 20260505102050 | 71 | 120 | 2.6 | 7.8 | 0.00 | 0.00 | 0.00 | 55 | 1009.3 |
| 20260505101544 | 71 | 83 | 2.6 | 6.1 | 0.00 | 0.00 | 0.00 | 55 | 1009.4 |
| 20260505101047 | 71 | 62 | 2.6 | 7.0 | 0.00 | 0.00 | 0.00 | 56 | 1009.5 |
| 20260505100543 | 69 | 63 | 3.5 | 7.0 | 0.00 | 0.00 | 0.00 | 56 | 1009.5 |
| 20260505100053 | 69 | 83 | 5.2 | 9.6 | 0.00 | 0.00 | 0.00 | 59 | 1009.6 |
| 20260505095812 | 69 | 110 | 4.3 | 9.6 | 0.00 | 0.00 | 0.00 | 57 | 1009.7 |
| 20260505095044 | 69 | 92 | 6.1 | 9.6 | 0.00 | 0.00 | 0.00 | 58 | 1009.7 |
| 20260505094759 | 69 | 60 | 0.9 | 7.0 | 0.00 | 0.00 | 0.00 | 58 | 1009.8 |
| 20260505093538 | 67 | 70 | 2.6 | 7.8 | 0.00 | 0.00 | 0.00 | 58 | 1009.9 |
| 20260505093036 | 68 | 75 | 4.3 | 7.8 | 0.00 | 0.00 | 0.00 | 61 | 1010.0 |
| 20260505092535 | 68 | 60 | 1.7 | 7.8 | 0.00 | 0.00 | 0.00 | 60 | 1009.9 |
| 20260505092033 | 69 | 23 | 3.5 | 7.8 | 0.00 | 0.00 | 0.00 | 61 | 1010.1 |
| 20260505091532 | 68 | 114 | 2.6 | 7.0 | 0.00 | 0.00 | 0.00 | 60 | 1010.0 |
| 20260505091027 | 68 | 76 | 2.6 | 7.0 | 0.00 | 0.00 | 0.00 | 61 | 1010.1 |
| 20260505090802 | 68 | 72 | 0.9 | 8.7 | 0.00 | 0.00 | 0.00 | 64 | 1010.1 |
| 20260505090028 | 69 | 64 | 2.6 | 8.7 | 0.00 | 0.00 | 0.00 | 61 | 1010.1 |
| 20260505085528 | 68 | 92 | 2.6 | 7.0 | 0.00 | 0.00 | 0.00 | 63 | 1010.2 |
| 20260505084525 | 68 | 85 | 1.7 | 3.5 | 0.00 | 0.00 | 0.00 | 66 | 1010.2 |
| 20260505084021 | 66 | 74 | 1.7 | 3.5 | 0.00 | 0.00 | 0.00 | 69 | 1010.2 |
| 20260505083521 | 65 | 143 | 0.9 | 3.5 | 0.00 | 0.00 | 0.00 | 69 | 1010.2 |
| 20260505083022 | 65 | 117 | 0.0 | 4.3 | 0.00 | 0.00 | 0.00 | 69 | 1010.2 |
| 20260505082518 | 65 | 91 | 2.6 | 4.3 | 0.00 | 0.00 | 0.00 | 69 | 1010.3 |
| 20260505082017 | 65 | 95 | 2.6 | 7.0 | 0.00 | 0.00 | 0.00 | 70 | 1010.3 |
| 20260505081516 | 65 | 97 | 2.6 | 7.0 | 0.00 | 0.00 | 0.00 | 70 | 1010.3 |
| 20260505081015 | 65 | 83 | 1.7 | 3.5 | 0.00 | 0.00 | 0.00 | 71 | 1010.3 |
| 20260505080513 | 65 | 132 | 0.9 | 3.5 | 0.00 | 0.00 | 0.00 | 72 | 1010.3 |
| 20260505080013 | 64 | 50 | 1.7 | 3.5 | 0.00 | 0.00 | 0.00 | 73 | 1010.4 |
| 20260505075739 | 63 | 89 | 2.6 | 3.5 | 0.00 | 0.00 | 0.00 | 72 | 1010.5 |
| 20260505075013 | 63 | 326 | 0.9 | 3.5 | 0.00 | 0.00 | 0.00 | 74 | 1010.5 |
| 20260505074510 | 62 | 48 | 0.0 | 3.5 | 0.00 | 0.00 | 0.00 | 75 | 1010.5 |
| 20260505074008 | 61 | 45 | 0.9 | 6.1 | 0.00 | 0.00 | 0.00 | 75 | 1010.5 |
| 20260505073508 | 61 | 323 | 2.6 | 6.1 | 0.00 | 0.00 | 0.00 | 77 | 1010.5 |
| 20260505073005 | 60 | 303 | 0.9 | 5.2 | 0.00 | 0.00 | 0.00 | 76 | 1010.6 |
| 20260505072501 | 60 | 313 | 0.9 | 5.2 | 0.00 | 0.00 | 0.00 | 79 | 1010.6 |
| 20260505072003 | 59 | 320 | 0.9 | 5.2 | 0.00 | 0.00 | 0.00 | 79 | 1010.6 |
| 20260505071726 | 59 | 3 | 0.9 | 6.1 | 0.00 | 0.00 | 0.00 | 80 | 1010.6 |
| 20260505070458 | 58 | 323 | 0.9 | 6.1 | 0.00 | 0.00 | 0.00 | 80 | 1010.7 |
| 20260505065958 | 58 | 328 | 1.7 | 3.5 | 0.00 | 0.00 | 0.00 | 80 | 1010.6 |
| 20260505065452 | 58 | 322 | 0.9 | 3.5 | 0.00 | 0.00 | 0.00 | 81 | 1010.7 |
| 20260505064945 | 58 | 328 | 0.0 | 5.2 | 0.00 | 0.00 | 0.00 | 82 | 1010.8 |
| 20260505064445 | 58 | 328 | 0.0 | 5.2 | 0.00 | 0.00 | 0.00 | 81 | 1010.9 |
| 20260505063942 | 58 | 323 | 1.7 | 5.2 | 0.00 | 0.00 | 0.00 | 82 | 1010.8 |
| 20260505063441 | 57 | 331 | 0.9 | 3.5 | 0.00 | 0.00 | 0.00 | 82 | 1010.8 |
| 20260505062941 | 57 | 3 | 0.0 | 4.3 | 0.00 | 0.00 | 0.00 | 81 | 1010.9 |
| 20260505062442 | 57 | 334 | 0.9 | 5.2 | 0.00 | 0.00 | 0.00 | 82 | 1011.0 |
| 20260505061442 | 57 | 331 | 0.9 | 3.5 | 0.00 | 0.00 | 0.00 | 83 | 1011.1 |
| 20260505061151 | 57 | 17 | 0.9 | 3.5 | 0.00 | 0.00 | 0.00 | 82 | 1011.1 |
| 20260505060432 | 56 | 334 | 0.0 | 3.5 | 0.00 | 0.00 | 0.00 | 83 | 1011.1 |
| 20260505055927 | 56 | 312 | 0.9 | 3.5 | 0.00 | 0.00 | 0.00 | 83 | 1011.2 |
| 20260505055427 | 56 | 253 | 0.0 | 3.5 | 0.00 | 0.00 | 0.00 | 83 | 1011.2 |
| 20260505053924 | 56 | 285 | 0.0 | 4.3 | 0.00 | 0.00 | 0.00 | 83 | 1011.1 |
| 20260505053421 | 55 | 267 | 0.9 | 6.1 | 0.00 | 0.00 | 0.00 | 83 | 1011.0 |
| 20260505052922 | 55 | 322 | 1.7 | 6.1 | 0.00 | 0.00 | 0.00 | 84 | 1010.9 |
| 20260505052422 | 55 | 318 | 0.9 | 7.0 | 0.00 | 0.00 | 0.00 | 84 | 1011.0 |
| 20260505051919 | 55 | 334 | 0.9 | 6.1 | 0.00 | 0.00 | 0.00 | 84 | 1010.9 |
| 20260505051418 | 55 | 329 | 1.7 | 6.1 | 0.00 | 0.00 | 0.00 | 84 | 1010.8 |
| 20260505050916 | 54 | 327 | 0.0 | 3.5 | 0.00 | 0.00 | 0.00 | 85 | 1010.9 |
| 20260505050416 | 54 | 343 | 0.0 | 3.5 | 0.00 | 0.00 | 0.00 | 85 | 1010.9 |
| 20260505041359 | 54 | 323 | 4.3 | 10.4 | 0.00 | 0.00 | 0.00 | 85 | 1011.0 |
| 20260505040640 | 54 | 317 | 7.0 | 12.2 | 0.00 | 0.00 | 0.00 | 84 | 1011.1 |
| 20260505035347 | 54 | 316 | 7.8 | 12.2 | 0.00 | 0.00 | 0.00 | 84 | 1011.2 |
| 20260505034848 | 54 | 330 | 6.1 | 12.2 | 0.00 | 0.00 | 0.00 | 84 | 1011.2 |
| 20260505034345 | 54 | 319 | 5.2 | 10.4 | 0.00 | 0.00 | 0.00 | 83 | 1011.2 |
| 20260505033840 | 55 | 324 | 3.5 | 9.6 | 0.00 | 0.00 | 0.00 | 83 | 1011.3 |
| 20260505033343 | 55 | 318 | 3.5 | 7.8 | 0.00 | 0.00 | 0.00 | 83 | 1011.4 |
| 20260505032839 | 55 | 329 | 2.6 | 7.8 | 0.00 | 0.00 | 0.00 | 82 | 1011.4 |
| 20260505031836 | 55 | 327 | 4.3 | 10.4 | 0.00 | 0.00 | 0.00 | 82 | 1011.4 |
| 20260505031333 | 55 | 329 | 6.1 | 11.3 | 0.00 | 0.00 | 0.00 | 81 | 1011.4 |
| 20260505030837 | 55 | 322 | 7.0 | 12.2 | 0.00 | 0.00 | 0.00 | 81 | 1011.4 |
| 20260505025835 | 55 | 319 | 7.8 | 10.4 | 0.00 | 0.00 | 0.00 | 81 | 1011.4 |
| 20260505025330 | 55 | 330 | 6.1 | 11.3 | 0.00 | 0.00 | 0.00 | 81 | 1011.5 |
| 20260505024327 | 55 | 319 | 7.8 | 12.2 | 0.00 | 0.00 | 0.00 | 80 | 1011.5 |
| 20260505023826 | 55 | 322 | 6.1 | 12.2 | 0.00 | 0.00 | 0.00 | 80 | 1011.6 |
| 20260505023323 | 55 | 326 | 7.8 | 12.2 | 0.00 | 0.00 | 0.00 | 80 | 1011.5 |
| 20260505023059 | 55 | 320 | 7.8 | 12.2 | 0.00 | 0.00 | 0.00 | 80 | 1011.7 |
| 20260505022323 | 55 | 316 | 7.8 | 12.2 | 0.00 | 0.00 | 0.00 | 81 | 1011.7 |
| 20260505021821 | 55 | 312 | 7.8 | 12.2 | 0.00 | 0.00 | 0.00 | 80 | 1011.8 |
| 20260505021319 | 56 | 326 | 6.1 | 11.3 | 0.00 | 0.00 | 0.00 | 80 | 1011.8 |
| 20260505020820 | 56 | 328 | 6.1 | 11.3 | 0.00 | 0.00 | 0.00 | 80 | 1011.9 |
| 20260505020319 | 56 | 319 | 6.1 | 10.4 | 0.00 | 0.00 | 0.00 | 80 | 1012.0 |
| 20260505020121 | 56 | 321 | 3.5 | 9.6 | 0.00 | 0.00 | 0.00 | 80 | 1012.0 |
| 20260505015313 | 56 | 321 | 5.2 | 9.6 | 0.00 | 0.00 | 0.00 | 80 | 1012.0 |
| 20260505014813 | 56 | 313 | 7.0 | 9.6 | 0.00 | 0.00 | 0.00 | 80 | 1011.9 |
| 20260505014310 | 56 | 326 | 6.1 | 8.7 | 0.00 | 0.00 | 0.00 | 80 | 1011.8 |
| 20260505013810 | 57 | 324 | 3.5 | 7.8 | 0.00 | 0.00 | 0.00 | 79 | 1012.1 |
| 20260505013309 | 57 | 321 | 1.7 | 5.2 | 0.00 | 0.00 | 0.00 | 79 | 1012.2 |
| 20260505012808 | 57 | 291 | 0.0 | 3.5 | 0.00 | 0.00 | 0.00 | 78 | 1012.2 |
| 20260505012307 | 57 | 325 | 0.0 | 1.7 | 0.00 | 0.00 | 0.00 | 77 | 1012.2 |
| 20260505012030 | 57 | 325 | 0.0 | 0.9 | 0.00 | 0.00 | 0.00 | 77 | 1012.3 |
| 20260505011304 | 57 | 325 | 0.0 | 3.5 | 0.00 | 0.00 | 0.00 | 77 | 1012.4 |
| 20260505010805 | 57 | 325 | 0.0 | 8.7 | 0.00 | 0.00 | 0.00 | 77 | 1012.3 |
| 20260505010259 | 57 | 319 | 2.6 | 8.7 | 0.00 | 0.00 | 0.00 | 77 | 1012.2 |
| 20260505005800 | 57 | 322 | 3.5 | 7.8 | 0.00 | 0.00 | 0.00 | 77 | 1012.2 |
| 20260505005259 | 57 | 287 | 1.7 | 6.1 | 0.00 | 0.00 | 0.00 | 77 | 1012.3 |
| 20260505004758 | 58 | 318 | 3.5 | 8.7 | 0.00 | 0.00 | 0.00 | 76 | 1012.3 |
| 20260505004256 | 58 | 324 | 6.1 | 9.6 | 0.00 | 0.00 | 0.00 | 76 | 1012.3 |
| 20260505003755 | 58 | 323 | 5.2 | 10.4 | 0.00 | 0.00 | 0.00 | 76 | 1012.3 |
| 20260505003250 | 58 | 324 | 6.1 | 10.4 | 0.00 | 0.00 | 0.00 | 75 | 1012.3 |
| 20260505002755 | 58 | 329 | 6.1 | 10.4 | 0.00 | 0.00 | 0.00 | 75 | 1012.4 |
| 20260505002253 | 58 | 325 | 5.2 | 10.4 | 0.00 | 0.00 | 0.00 | 75 | 1012.4 |
| 20260505001750 | 58 | 322 | 5.2 | 10.4 | 0.00 | 0.00 | 0.00 | 75 | 1012.4 |
| 20260505001244 | 58 | 327 | 4.3 | 8.7 | 0.00 | 0.00 | 0.00 | 75 | 1012.6 |
| 20260505000747 | 58 | 327 | 5.2 | 8.7 | 0.00 | 0.00 | 0.00 | 75 | 1012.6 |
| 20260505000242 | 58 | 326 | 2.6 | 7.0 | 0.00 | 0.00 | 0.00 | 75 | 1012.6 |
| 20260504235746 | 58 | 327 | 1.7 | 7.0 | 0.00 | 0.00 | 0.00 | 75 | 1012.8 |
| 20260504235243 | 58 | 331 | 0.9 | 6.1 | 0.00 | 0.00 | 0.00 | 74 | 1012.7 |
| 20260504235022 | 58 | 334 | 1.7 | 6.1 | 0.00 | 0.00 | 0.00 | 74 | 1012.8 |
| 20260504234241 | 58 | 249 | 0.0 | 2.6 | 0.00 | 0.00 | 0.00 | 74 | 1012.8 |
| 20260504233743 | 58 | 274 | 0.9 | 2.6 | 0.00 | 0.00 | 0.00 | 73 | 1012.8 |
| 20260504232226 | 59 | 308 | 0.0 | 0.9 | 0.00 | 0.00 | 0.00 | 73 | 1012.9 |
| 20260504231725 | 59 | 307 | 0.0 | 0.9 | 0.00 | 0.00 | 0.00 | 73 | 1012.9 |
| 20260504231227 | 58 | 307 | 0.0 | 1.7 | 0.00 | 0.00 | 0.00 | 72 | 1013.0 |
| 20260504230721 | 58 | 307 | 0.0 | 2.6 | 0.00 | 0.00 | 0.00 | 73 | 1013.0 |
| 20260504230222 | 59 | 321 | 0.0 | 2.6 | 0.00 | 0.00 | 0.00 | 73 | 1013.1 |
| 20260504225946 | 59 | 301 | 0.0 | 2.6 | 0.00 | 0.00 | 0.00 | 73 | 1013.1 |
| 20260504225443 | 59 | 304 | 0.0 | 2.6 | 0.00 | 0.00 | 0.00 | 73 | 1013.1 |
| 20260504224943 | 59 | 359 | 0.0 | 1.7 | 0.00 | 0.00 | 0.00 | 72 | 1013.2 |
| 20260504224210 | 59 | 359 | 0.0 | 2.6 | 0.00 | 0.00 | 0.00 | 71 | 1013.2 |
| 20260504223705 | 60 | 323 | 0.9 | 6.1 | 0.00 | 0.00 | 0.00 | 71 | 1013.2 |
| 20260504223437 | 60 | 319 | 0.9 | 6.1 | 0.00 | 0.00 | 0.00 | 70 | 1013.2 |
| 20260504222703 | 60 | 295 | 0.9 | 5.2 | 0.00 | 0.00 | 0.00 | 69 | 1013.2 |
| 20260504222441 | 60 | 299 | 2.6 | 5.2 | 0.00 | 0.00 | 0.00 | 69 | 1013.3 |
| 20260504221934 | 60 | 318 | 0.0 | 2.6 | 0.00 | 0.00 | 0.00 | 69 | 1013.2 |
| 20260504221151 | 60 | 318 | 0.0 | 3.5 | 0.00 | 0.00 | 0.00 | 68 | 1013.3 |
| 20260504220652 | 60 | 318 | 0.0 | 6.1 | 0.00 | 0.00 | 0.00 | 68 | 1013.4 |
| 20260504215145 | 60 | 328 | 2.6 | 7.0 | 0.00 | 0.00 | 0.00 | 64 | 1013.2 |
| 20260504214651 | 60 | 331 | 0.9 | 3.5 | 0.00 | 0.00 | 0.00 | 62 | 1013.3 |
| 20260504214143 | 60 | 13 | 0.0 | 3.5 | 0.00 | 0.00 | 0.00 | 61 | 1013.3 |
| 20260504213645 | 61 | 13 | 0.0 | 3.5 | 0.00 | 0.00 | 0.00 | 61 | 1013.4 |
| 20260504213143 | 61 | 12 | 0.0 | 1.7 | 0.00 | 0.00 | 0.00 | 61 | 1013.4 |
| 20260504212642 | 61 | 322 | 0.0 | 2.6 | 0.00 | 0.00 | 0.00 | 61 | 1013.4 |
| 20260504211356 | 61 | 330 | 0.9 | 2.6 | 0.00 | 0.00 | 0.00 | 61 | 1013.5 |
| 20260504205636 | 61 | 330 | 0.0 | 2.6 | 0.00 | 0.00 | 0.00 | 60 | 1013.5 |
| 20260504205356 | 61 | 330 | 0.0 | 2.6 | 0.00 | 0.00 | 0.00 | 60 | 1013.5 |
| 20260504204632 | 62 | 328 | 0.0 | 2.6 | 0.00 | 0.00 | 0.00 | 60 | 1013.5 |
| 20260504204132 | 62 | 329 | 0.0 | 2.6 | 0.00 | 0.00 | 0.00 | 59 | 1013.5 |
| 20260504203634 | 62 | 320 | 0.0 | 5.2 | 0.00 | 0.00 | 0.00 | 58 | 1013.5 |
| 20260504203129 | 62 | 320 | 1.7 | 5.2 | 0.00 | 0.00 | 0.00 | 57 | 1013.4 |
| 20260504202855 | 62 | 312 | 1.7 | 4.3 | 0.00 | 0.00 | 0.00 | 57 | 1013.5 |
| 20260504202126 | 62 | 294 | 0.9 | 3.5 | 0.00 | 0.00 | 0.00 | 57 | 1013.5 |
| 20260504201627 | 62 | 312 | 1.7 | 3.5 | 0.00 | 0.00 | 0.00 | 57 | 1013.5 |
| 20260504201124 | 62 | 324 | 1.7 | 5.2 | 0.00 | 0.00 | 0.00 | 57 | 1013.6 |
| 20260504200622 | 62 | 286 | 0.9 | 5.2 | 0.00 | 0.00 | 0.00 | 58 | 1013.5 |
| 20260504200126 | 62 | 320 | 2.6 | 7.8 | 0.00 | 0.00 | 0.00 | 58 | 1013.5 |
| 20260504195622 | 62 | 308 | 3.5 | 7.8 | 0.00 | 0.00 | 0.00 | 58 | 1013.6 |
| 20260504195121 | 62 | 326 | 3.5 | 6.1 | 0.00 | 0.00 | 0.00 | 59 | 1013.6 |
| 20260504194616 | 62 | 324 | 4.3 | 6.1 | 0.00 | 0.00 | 0.00 | 58 | 1013.5 |
| 20260504194116 | 63 | 329 | 2.6 | 5.2 | 0.00 | 0.00 | 0.00 | 58 | 1013.5 |
| 20260504193614 | 63 | 324 | 1.7 | 5.2 | 0.00 | 0.00 | 0.00 | 58 | 1013.6 |
| 20260504193113 | 63 | 331 | 2.6 | 5.2 | 0.00 | 0.00 | 0.00 | 57 | 1013.6 |
| 20260504192611 | 64 | 328 | 2.6 | 5.2 | 0.00 | 0.00 | 0.00 | 56 | 1013.6 |
| 20260504192111 | 64 | 284 | 2.6 | 4.3 | 0.00 | 0.00 | 0.00 | 55 | 1013.7 |
| 20260504191835 | 64 | 281 | 0.9 | 4.3 | 0.00 | 0.00 | 0.00 | 55 | 1013.6 |
| 20260504191110 | 64 | 288 | 1.7 | 4.3 | 0.00 | 0.00 | 0.00 | 54 | 1013.5 |
| 20260504190603 | 64 | 306 | 1.7 | 4.3 | 0.00 | 0.00 | 0.00 | 54 | 1013.6 |
| 20260504190105 | 64 | 285 | 2.6 | 6.1 | 0.00 | 0.00 | 0.00 | 54 | 1013.5 |
| 20260504184600 | 65 | 326 | 0.9 | 3.5 | 0.00 | 0.00 | 0.00 | 53 | 1013.4 |
| 20260504184323 | 65 | 326 | 1.7 | 3.5 | 0.00 | 0.00 | 0.00 | 53 | 1013.5 |
| 20260504183554 | 65 | 324 | 1.7 | 3.5 | 0.00 | 0.00 | 0.00 | 53 | 1013.5 |
| 20260504183049 | 65 | 304 | 0.9 | 3.5 | 0.00 | 0.00 | 0.00 | 53 | 1013.5 |
| 20260504182548 | 65 | 295 | 2.6 | 3.5 | 0.00 | 0.00 | 0.00 | 53 | 1013.6 |
| 20260504182046 | 65 | 290 | 1.7 | 4.3 | 0.00 | 0.00 | 0.00 | 53 | 1013.6 |
| 20260504181546 | 66 | 276 | 1.7 | 4.3 | 0.00 | 0.00 | 0.00 | 53 | 1013.6 |
| 20260504181044 | 66 | 282 | 2.6 | 6.1 | 0.00 | 0.00 | 0.00 | 53 | 1013.6 |
| 20260504180543 | 66 | 273 | 2.6 | 6.1 | 0.00 | 0.00 | 0.00 | 52 | 1013.6 |
| 20260504175804 | 66 | 318 | 1.7 | 6.1 | 0.00 | 0.00 | 0.00 | 51 | 1013.4 |
| 20260504175038 | 66 | 324 | 3.5 | 6.1 | 0.00 | 0.00 | 0.00 | 52 | 1013.3 |
| 20260504174534 | 66 | 330 | 2.6 | 7.0 | 0.00 | 0.00 | 0.00 | 52 | 1013.3 |